Terminal Aerodrome Forecast
Issued by NWS Albany, NY

Home | Current Version | Previous Version | Text Only | Print | Product List | Glossary On
Versions: 1 2 3 4 5 6 7 8 9 10 11 12 13 14 15 16 17 18 19 20 21
000
FTUS41 KALY 301500 AAB
TAFGFL
TAF AMD
KGFL 301505Z 3015/3112 23005KT 5SM -SN SCT006 OVC020
      TEMPO 3015/3017 3/4SM -SN BKN006
     FM301700 32009KT 4SM -SHSN BKN015 BKN035
     FM302000 34010G20KT P6SM VCSH BKN025 BKN035
     FM310600 33010KT P6SM SCT020=

USA.gov is the U.S. government's official web portal to all federal, state and local government web resources and services.